TimeCST,TemperatureF,Dew PointF,Humidity,Sea Level PressureIn,VisibilityMPH,Wind Direction,Wind SpeedMPH,Gust SpeedMPH,PrecipitationIn,Events,Conditions,WindDirDegrees,DateUTC
12:52 AM,21.9,19.0,89,30.29,-9999.0,Calm,Calm,-,N/A,,Unknown,0,2013-01-03 06:52:00
1:52 AM,24.1,19.9,84,30.30,-9999.0,Calm,Calm,-,N/A,,Unknown,0,2013-01-03 07:52:00
2:52 AM,25.0,21.9,88,30.31,-9999.0,Variable,3.5,-,N/A,,Unknown,0,2013-01-03 08:52:00
3:52 AM,21.9,19.9,92,30.32,-9999.0,Calm,Calm,-,N/A,,Unknown,0,2013-01-03 09:52:00
4:52 AM,24.1,21.9,91,30.33,-9999.0,Variable,3.5,-,N/A,,Unknown,0,2013-01-03 10:52:00
5:52 AM,19.0,18.0,96,30.34,-9999.0,Calm,Calm,-,N/A,,Unknown,0,2013-01-03 11:52:00
6:52 AM,27.0,24.1,89,30.35,-9999.0,NW,4.6,-,N/A,,Unknown,310,2013-01-03 12:52:00
7:52 AM,28.0,25.0,88,30.37,-9999.0,WNW,4.6,-,N/A,,Unknown,300,2013-01-03 13:52:00
8:52 AM,30.0,26.1,85,30.39,-9999.0,Variable,3.5,-,N/A,,Unknown,0,2013-01-03 14:52:00
9:52 AM,30.9,27.0,85,30.42,-9999.0,WSW,3.5,-,N/A,,Unknown,240,2013-01-03 15:52:00
10:52 AM,34.0,27.0,75,30.43,-9999.0,West,8.1,-,N/A,,Unknown,280,2013-01-03 16:52:00
11:52 AM,35.1,26.1,70,30.42,-9999.0,WNW,8.1,-,N/A,,Unknown,290,2013-01-03 17:52:00
12:52 PM,35.1,24.1,64,30.40,-9999.0,WNW,11.5,18.4,N/A,,Unknown,300,2013-01-03 18:52:00
1:52 PM,34.0,23.0,64,30.40,-9999.0,West,8.1,-,N/A,,Unknown,280,2013-01-03 19:52:00
2:52 PM,34.0,23.0,64,30.40,-9999.0,NW,11.5,-,N/A,,Unknown,310,2013-01-03 20:52:00
3:52 PM,30.9,19.9,64,30.43,-9999.0,WNW,8.1,-,N/A,,Unknown,300,2013-01-03 21:52:00
4:52 PM,28.9,19.0,67,30.44,-9999.0,WNW,8.1,-,N/A,,Unknown,300,2013-01-03 22:52:00
5:52 PM,26.1,18.0,71,30.46,-9999.0,NW,4.6,-,N/A,,Unknown,310,2013-01-03 23:52:00
6:52 PM,24.1,18.0,77,30.47,-9999.0,NW,3.5,-,N/A,,Unknown,310,2013-01-04 00:52:00
7:52 PM,21.0,17.1,85,30.48,-9999.0,Calm,Calm,-,N/A,,Unknown,0,2013-01-04 01:52:00
8:52 PM,19.0,16.0,88,30.48,-9999.0,Calm,Calm,-,N/A,,Unknown,0,2013-01-04 02:52:00
9:52 PM,17.1,15.1,92,30.47,-9999.0,NW,3.5,-,N/A,,Unknown,320,2013-01-04 03:52:00
10:52 PM,15.1,10.9,84,30.46,-9999.0,Calm,Calm,-,N/A,,Unknown,0,2013-01-04 04:52:00
11:52 PM,12.0,10.9,95,30.45,-9999.0,Calm,Calm,-,N/A,,Unknown,0,2013-01-04 05:52:00